Talkeetna, AK

3:41 AM AKDT on April 29, 2017 (GMT -0800)
Talkeetna

Weather History for PATK - July, 2012

Change the Weather History Date:

Wednesday, July 25, 2012

  Actual Average Record
Temperature  
Mean Temperature 58 °F -  
Max Temperature 71 °F 67 °F 87 °F (1953)
Min Temperature 44 °F 49 °F 38 °F (1954)
Degree Days  
Heating Degree Days 8    
Growing Degree Days 8 (Base 50)    
Moisture  
Dew Point 49 °F    
Average Humidity 74    
Maximum Humidity 97    
Minimum Humidity 31    
Precipitation  
Precipitation 0.00 in - - ()
Sea Level Pressure  
Sea Level Pressure 30.18 in    
Wind  
Wind Speed 1 mph (SW)    
Max Wind Speed 5 mph    
Max Gust Speed -    
Visibility 10 miles    
Events      
Averages and records for this station are not official NWS values.
T = Trace of Precipitation, MM = Missing Value Source: NWS Daily Summary

Daily Weather History Graph

Daily Weather History Graph

Search for Another Location

Airport or City:

Trip Planner

Search our weather history database for the weather conditions in past years. The results will help you decide how hot, cold, wet, or windy it might be!

Date:

Astronomy

Jul. 25, 2012 Rise Set
Actual Time 5:06 AM AKDT 11:05 PM AKDT
Civil Twilight 3:42 AM AKDT 12:26 AM AKDT
Nautical Twilight Sun does not set Sun does not set
Astronomical Twilight Sun does not set Sun does not set
Moon 3:15 PM AKDT (7/25) 11:39 PM AKDT (7/25)
Length of Visible Light 20h 44m
Length of Day
17h 58m
Waxing Crescent, 44% of the Moon is Illuminated
Jul 25
Waxing Crescent
Jul 26
First Quarter
Aug 1
Full
Aug 9
Last Quarter
Aug 17
New

Hourly Weather History & Observations

Time (AKDT) Temp. Dew Point Humidity Pressure Visibility Wind Dir Wind Speed Gust Speed Precip Events Conditions
12:53 AM 51.1 °F 48.9 °F 92% 30.23 in 10.0 mi Calm Calm - N/A   Clear
1:53 AM 48.9 °F 48.0 °F 97% 30.24 in 10.0 mi Calm Calm - N/A   Clear
2:53 AM 46.0 °F 45.0 °F 96% 30.24 in 10.0 mi Calm Calm - N/A   Clear
3:53 AM 45.0 °F 44.1 °F 97% 30.25 in 10.0 mi Calm Calm - N/A   Clear
4:53 AM 46.0 °F 44.1 °F 93% 30.25 in 10.0 mi Calm Calm - N/A   Clear
5:53 AM 46.9 °F 46.0 °F 97% 30.25 in 10.0 mi Calm Calm - N/A   Clear
6:53 AM 46.9 °F 46.0 °F 97% 30.25 in 10.0 mi Calm Calm - N/A   Clear
7:53 AM 50.0 °F 48.0 °F 93% 30.25 in 10.0 mi Calm Calm - N/A   Clear
8:53 AM 51.1 °F 48.9 °F 92% 30.24 in 10.0 mi Calm Calm - N/A   Overcast
9:53 AM 54.0 °F 51.1 °F 90% 30.24 in 10.0 mi Calm Calm - N/A   Overcast
10:53 AM 55.9 °F 51.1 °F 84% 30.23 in 10.0 mi Calm Calm - N/A   Overcast
11:53 AM 57.9 °F 50.0 °F 75% 30.22 in 10.0 mi Calm Calm - N/A   Overcast
12:53 PM 60.1 °F 51.1 °F 72% 30.21 in 10.0 mi Calm Calm - N/A   Overcast
1:53 PM 63.0 °F 51.1 °F 65% 30.19 in 10.0 mi Variable 3.5 mph - N/A   Clear
2:53 PM 66.0 °F 48.0 °F 52% 30.17 in 10.0 mi Variable 3.5 mph - N/A   Clear
3:53 PM 68.0 °F 44.1 °F 42% 30.14 in 10.0 mi Calm Calm - N/A   Partly Cloudy
4:53 PM 69.1 °F 46.9 °F 45% 30.12 in 10.0 mi Calm Calm - N/A   Partly Cloudy
5:53 PM 69.1 °F 46.9 °F 45% 30.10 in 10.0 mi Variable 3.5 mph - N/A   Partly Cloudy
6:53 PM 70.0 °F 46.9 °F 44% 30.09 in 10.0 mi SW 4.6 mph - N/A   Partly Cloudy
7:53 PM 69.1 °F 50.0 °F 51% 30.08 in 10.0 mi SSW 4.6 mph - N/A   Partly Cloudy
8:53 PM 68.0 °F 52.0 °F 56% 30.07 in 10.0 mi SSW 4.6 mph - N/A   Clear
9:53 PM 64.9 °F 53.1 °F 65% 30.07 in 10.0 mi SW 3.5 mph - N/A   Clear
10:53 PM 62.1 °F 53.1 °F 72% 30.07 in 10.0 mi Calm Calm - N/A   Clear
11:53 PM 60.1 °F 54.0 °F 80% 30.07 in 10.0 mi Calm Calm - N/A   Scattered Clouds